[[{"header":{"parameterUnit":"m.s-1","parameterCategory":1,"la1":30.2991,"la2":30.254,"lo1":-89.0895,"lo2":-89.0444,"dy":0.0017,"dx":0.0017,"nx":28,"ny":28,"refTime":"2025-08-17T03:00:00:Z","depth":0,"parameterNumber":2,"parameterNumberName":"U-component_of_WINDS"},"data":[0,0,0,0,0,0,0,0,0,0,0,0,0,0,0,0,0,0,0,0,0,0,0,0,0,0,0,0,0,0,0,0,0,0,0,0,0,0,0,0,0,0,0,0,0,0,0,0,0,0,0,0,0,0,0,0,0,0,0.9967,0.997,0,1.0236,1.0239,1.0242,1.0369,1.0368,1.0368,1.0368,1.0635,1.0642,1.0649,0,0,0,0,0,0,0,0,0,0,0,0,0,0.956,0.9566,0.9967,0.997,0.9974,1.0235,1.0239,1.0243,1.0369,1.0368,1.0368,1.0368,1.0633,1.0641,1.065,0,0,0,0,0,0,0,0,0,0,0,0,0,0.9773,0.9569,0.9966,1.0068,1.008,1.0235,1.0239,1.0244,1.0369,1.0368,1.0368,1.0368,1.063,1.064,1.0651,1.0722,0,0,1.0684,1.0689,0,0,0,0,0,0,0,0,0.9761,0.9788,1.005,1.0061,1.0075,1.0269,1.0194,1.0404,1.0369,1.0259,1.0368,1.0368,1.0513,1.0533,1.0584,1.0735,1.0746,1.0685,1.0692,1.0696,1.07,0,0,0,0,0,0,0,0.9746,0.9777,1.0073,1.0053,1.0069,1.01,1.013,1.0234,1.0383,1.0268,1.0278,1.0309,1.0519,1.0573,1.0591,1.075,1.0685,1.0695,1.0701,1.0705,1.0978,1.0979,0,0,0,0,0,0,0.9715,0.9764,1.0065,1.0081,0.9914,1.0107,1.0141,1.0206,1.0383,1.0409,1.0309,1.0314,1.0555,1.0578,1.0601,1.0699,1.0696,1.0707,1.0713,1.0978,1.0979,1.0979,0,0,0,0,0,0,0.9706,0.9741,1.0054,0.9926,0.9968,1.0114,1.0187,1.0212,1.0266,1.0413,1.044,1.0336,1.0555,1.0586,1.0693,1.071,1.0711,1.0721,1.0977,1.0978,1.0979,1.0893,0,0,0,0,0,0,0.9694,0.9737,0.9765,0.9925,0.9974,1.0142,1.0188,1.0217,1.0285,1.0294,1.0446,1.0471,1.0558,1.0676,1.0704,1.0725,1.073,1.0976,1.0977,1.0979,1.0895,1.0891,1.0888,0,0,0,0,0,0.9679,0.9727,0.9766,0.9801,1.0013,1.0142,1.017,1.0271,1.0286,1.0316,1.0412,1.0466,1.0704,1.0686,1.0718,1.0743,1.0975,1.0977,1.0978,1.0897,1.0892,1.0888,0,0,0,0,0,0,0.956,0.975,0.9795,0.9897,1.0003,1.0164,1.0204,1.0262,1.0364,1.0368,1.0487,1.052,1.0617,1.0691,1.0668,1.0824,1.0845,1.0853,1.0771,1.0768,1.0765,1.0744,1.0739,0,0,0,0,0,0.9547,0.9638,0.9798,0.9872,0.9924,1.0055,1.0115,1.0185,1.0298,1.0343,1.0446,1.0552,1.0652,1.0714,1.0814,1.0907,1.0943,1.0941,1.0937,1.0933,1.0938,1.0997,1.0998,1.0985,1.0985,1.0985,0,0,0.9518,0.9633,0.9682,0.9852,0.9942,1.0034,1.0091,1.0184,1.0253,1.0356,1.0465,1.0545,1.0672,1.0774,1.0824,1.0838,1.0951,1.0935,1.0931,1.0939,1.0999,1.1,1.1001,1.0986,1.0986,1.0986,0,0,0.9513,0.9609,0.9684,0.9776,0.9914,1.0002,1.002,1.0174,1.0233,1.0345,1.0426,1.0509,1.0677,1.0766,1.0832,1.0869,1.0924,1.0898,1.0878,1.0934,1.0935,1.0937,1.0951,1.0955,1.0903,1.0903,1.0903,0,0.9459,0.9601,0.9714,0.9805,0.9878,0.9982,1.0059,1.0141,1.0303,1.0351,1.0366,1.0583,1.0675,1.0802,1.0812,1.0862,1.0887,1.088,1.0926,1.0929,1.0932,1.0947,1.0952,1.0899,1.0899,1.09,1.09,0,0.953,0.9627,0.9671,0.9831,0.9909,0.9992,1.0117,1.0183,1.0248,1.0335,1.045,1.0566,1.0692,1.0728,1.0789,1.0864,1.0869,1.0904,1.0927,1.0928,1.0944,1.0951,1.0893,1.0895,1.0896,1.0897,0,0,0.945,0.9678,0.9692,0.9768,0.9932,1.001,1.0099,1.0228,1.0282,1.0393,1.0471,1.0614,1.065,1.0725,1.0799,1.0848,1.0873,1.0878,1.0883,1.0873,1.0966,1.0938,1.0943,1.0912,1.0913,1.0915,1.0955,0,0.9468,0.9635,0.9743,0.9867,0.996,1.0064,1.0142,1.0251,1.0336,1.0427,1.052,1.0621,1.0659,1.0706,1.076,1.0858,1.0893,1.0857,1.0985,1.0988,1.0949,1.0951,1.0921,1.0954,1.0962,1.0964,1.0964,0,0.9508,0.9622,0.9756,0.9917,0.996,1.0028,1.0158,1.0244,1.0371,1.043,1.0519,1.0595,1.0695,1.0712,1.0851,1.0824,1.0884,1.0941,1.0945,1.0959,1.0975,1.0966,1.0966,1.0971,1.0975,1.0974,1.0974,0,0.9439,0.9625,0.9731,0.9793,0.9982,1.0028,1.0109,1.0237,1.0309,1.0422,1.047,1.0591,1.0657,1.0749,1.0857,1.086,1.0986,1.1011,1.1037,1.1034,1.1056,1.1053,1.1066,1.1095,1.1095,1.1095,1.1095,0,0.9446,0.9523,0.9703,0.9768,0.986,0.9985,1.0072,1.0161,1.0275,1.0359,1.0456,1.0532,1.067,1.0764,1.0848,1.0952,1.098,1.103,1.1052,1.1022,1.1015,1.106,1.106,1.1096,1.1096,1.1096,1.1096,0,0.938,0.9504,0.9627,0.9799,0.9845,0.9905,1.0052,1.0119,1.0213,1.0318,1.035,1.0495,1.0611,1.073,1.0884,1.0941,1.1043,1.1072,1.1,1.1012,1.1032,1.1028,1.1073,1.1086,1.1106,1.1105,1.1105,0,0.9375,0.9439,0.9621,0.9687,0.9767,0.987,0.9947,1.0074,1.0149,1.0304,1.0352,1.0477,1.0583,1.0764,1.0882,1.1002,1.1035,1.1043,1.1053,1.1022,1.1036,1.1031,1.1039,1.1037,1.1036,1.1036,1.1035,0,0.9354,0.9414,0.9522,0.9654,0.9745,0.9853,0.9965,1.0013,1.0162,1.0242,1.0365,1.0448,1.0611,1.0733,1.0869,1.0951,1.1018,1.1032,1.1045,1.1013,1.0969,1.0995,1.0989,1.1029,1.103,1.103,1.1031,1.1031,0.9319,0.9383,0.9523,0.9642,0.9742,0.9846,0.992,1.0026,1.0132,1.0277,1.0346,1.0469,1.0601,1.0791,1.0873,1.0971,1.0989,1.1006,1.101,1.1012,1.1006,1.0956,1.0996,1.0996,1.0997,1.0997,1.0997,0,0.9303,0.94,0.9509,0.9667,0.9762,0.9823,0.9953,1.0027,1.0136,1.0255,1.036,1.0503,1.0625,1.0756,1.0886,1.0939,1.0973,1.0969,1.0965,1.0984,1.0982,1.0959,1.0939,1.0939,1.0939,1.0939,1.0939,1.0939,0.9305,0.9417,0.9496,0.966,0.9757,0.9883,0.9952,1.0049,1.0146,1.0303,1.0407,1.0494,1.0619,1.076,1.0875,1.0911,1.0953,1.094,1.0983,1.0979,1.0983,1.0987,1.0966,1.0948,1.0948,1.0978,1.0978,1.0978]},{"header":{"parameterUnit":"m.s-1","parameterCategory":1,"la1":30.2991,"la2":30.254,"lo1":-89.0895,"lo2":-89.0444,"dy":0.0017,"dx":0.0017,"nx":28,"ny":28,"refTime":"2025-08-17T03:00:00:Z","depth":0,"parameterNumber":3,"parameterNumberName":"V-component_of_WINDS"},"data":[0,0,0,0,0,0,0,0,0,0,0,0,0,0,0,0,0,0,0,0,0,0,0,0,0,0,0,0,0,0,0,0,0,0,0,0,0,0,0,0,0,0,0,0,0,0,0,0,0,0,0,0,0,0,0,0,0,0,2.9505,2.9503,0,2.9285,2.9282,2.928,2.9139,2.9138,2.9137,2.9136,2.8905,2.89,2.8895,0,0,0,0,0,0,0,0,0,0,0,0,0,2.9797,2.9792,2.9505,2.9502,2.95,2.9285,2.9282,2.9279,2.9139,2.9138,2.9137,2.9136,2.8907,2.8901,2.8894,0,0,0,0,0,0,0,0,0,0,0,0,0,2.9633,2.9791,2.9506,2.9404,2.9393,2.9286,2.9282,2.9278,2.9139,2.9138,2.9137,2.9136,2.8909,2.8901,2.8893,2.8868,0,0,2.8869,2.8865,0,0,0,0,0,0,0,0,2.9642,2.9622,2.9422,2.9411,2.9398,2.9238,2.93,2.914,2.9139,2.9235,2.9136,2.9135,2.9017,2.9,2.8961,2.8857,2.8848,2.8868,2.8863,2.886,2.8857,0,0,0,0,0,0,0,2.9654,2.9631,2.9418,2.9419,2.9404,2.9367,2.9342,2.9269,2.9135,2.9227,2.9216,2.9192,2.901,2.8969,2.8954,2.8844,2.8868,2.8861,2.8856,2.8853,2.8704,2.8705,0,0,0,0,0,0,2.9682,2.9641,2.9425,2.9411,2.952,2.9363,2.9335,2.9291,2.9136,2.9111,2.9194,2.9187,2.8983,2.8964,2.8946,2.8903,2.886,2.8852,2.8848,2.8703,2.8704,2.8705,0,0,0,0,0,0,2.9689,2.9664,2.9433,2.9523,2.9491,2.9359,2.931,2.9287,2.9246,2.9111,2.9086,2.9177,2.8982,2.8957,2.8888,2.8893,2.8849,2.8841,2.8702,2.8704,2.8705,2.882,0,0,0,0,0,0,2.9698,2.9668,2.9659,2.9524,2.9487,2.9382,2.9311,2.9283,2.9233,2.9222,2.9088,2.9065,2.8979,2.8901,2.888,2.8881,2.8835,2.8701,2.8703,2.8704,2.8815,2.8825,2.8834,0,0,0,0,0,2.9709,2.97,2.9659,2.9634,2.9473,2.9383,2.9361,2.9264,2.9234,2.9222,2.9135,2.9069,2.8897,2.8895,2.887,2.8869,2.87,2.8702,2.8704,2.8811,2.8823,2.8834,0,0,0,0,0,0,2.9837,2.968,2.9633,2.9581,2.9496,2.9359,2.9342,2.928,2.9201,2.9194,2.9074,2.9045,2.8987,2.8921,2.8922,2.8835,2.879,2.8788,2.888,2.889,2.89,2.8916,2.8828,0,0,0,0,0,2.9859,2.9801,2.9666,2.9633,2.9593,2.9475,2.9432,2.9364,2.9271,2.9234,2.9142,2.9052,2.8977,2.893,2.8854,2.8805,2.8772,2.8792,2.8801,2.881,2.8808,2.8773,2.878,2.8712,2.8712,2.8712,0,0,2.9904,2.9811,2.9782,2.9656,2.9583,2.9522,2.9446,2.9386,2.9339,2.9224,2.9153,2.9082,2.8974,2.8914,2.8883,2.8857,2.8819,2.8812,2.882,2.8813,2.8776,2.8783,2.8789,2.8713,2.8713,2.8713,0,0,2.9955,2.988,2.9843,2.9771,2.9661,2.9582,2.9573,2.9445,2.9394,2.9321,2.9232,2.9174,2.9048,2.8973,2.8919,2.8939,2.8875,2.8918,2.8966,2.8934,2.8939,2.8943,2.8947,2.8951,2.8917,2.8917,2.8917,0,3.0024,2.9932,2.9831,2.9775,2.9721,2.9616,2.9574,2.9509,2.9379,2.9343,2.9316,2.9154,2.9074,2.8994,2.8998,2.8959,2.8942,2.8932,2.8947,2.895,2.8952,2.8955,2.8957,2.8923,2.8922,2.8922,2.8921,0,3.0021,2.9958,2.9941,2.9819,2.9763,2.9716,2.9604,2.9558,2.9495,2.9418,2.9343,2.9243,2.9143,2.9119,2.9057,2.9029,2.9016,2.897,2.8923,2.8966,2.8966,2.8967,2.8931,2.8929,2.8928,2.8926,0,0,3.0146,2.9969,2.9964,2.9906,2.9776,2.9724,2.967,2.9574,2.9536,2.945,2.9399,2.9294,2.9249,2.9188,2.9115,2.9088,2.9106,2.9044,2.9039,2.9057,2.9065,2.9099,2.9102,2.9063,2.9063,2.9063,2.9073,0,3.0176,3.0076,2.9982,2.9915,2.9853,2.9751,2.9703,2.9617,2.9543,2.9478,2.9395,2.9322,2.9271,2.9232,2.92,2.9111,2.9106,2.9109,2.9011,2.9009,2.904,2.9103,2.9139,2.9154,2.9073,2.9073,2.9073,0,3.0197,3.0116,3.0044,2.9917,2.9888,2.9848,2.975,2.969,2.9589,2.9536,2.9467,2.9391,2.9325,2.9286,2.9192,2.9196,2.915,2.91,2.9098,2.9084,2.9043,2.9088,2.9157,2.9159,2.9073,2.9073,2.9073,0,3.0293,3.0166,3.0105,3.0059,2.9911,2.9884,2.9821,2.9718,2.9665,2.9579,2.9543,2.945,2.9399,2.9327,2.9226,2.9208,2.9141,2.9095,2.9093,2.9096,2.9083,2.9085,2.9144,2.9058,2.9058,2.9058,2.9058,0,3.0334,3.0293,3.0145,3.0108,3.0057,2.9948,2.99,2.9827,2.9737,2.968,2.9586,2.9535,2.9406,2.9338,2.9258,2.919,2.9169,2.9122,2.9101,2.9129,2.9135,2.9097,2.9092,2.9058,2.9058,2.9058,2.9058,0,3.0432,3.0332,3.0259,3.0125,3.009,3.0058,2.9942,2.9899,2.982,2.975,2.9727,2.9602,2.9517,2.9409,2.929,2.9236,2.9176,2.9145,2.9211,2.9198,2.9202,2.9203,2.9237,2.9234,2.9153,2.9154,2.9155,0,3.0465,3.0431,3.0293,3.025,3.019,3.0122,3.0067,2.9957,2.9904,2.9784,2.9756,2.9664,2.9585,2.9453,2.9349,2.9256,2.9221,2.9239,2.9206,2.9235,2.9218,2.922,2.9215,2.9247,2.9249,2.925,2.9251,0,3.0532,3.0484,3.0411,3.032,3.0258,3.018,3.0098,3.0067,2.9939,2.9884,2.9796,2.9735,2.9613,2.9522,2.9415,2.9346,2.9276,2.9262,2.9257,2.9284,2.9323,2.9299,2.9232,2.9262,2.9261,2.926,2.9259,2.9259,3.0596,3.056,3.0457,3.0378,3.0305,3.023,3.0183,3.0098,3.0024,2.9917,2.9856,2.977,2.9665,2.9515,2.9449,2.9377,2.9352,2.9344,2.9342,2.9341,2.9349,2.9336,2.9358,2.9357,2.9357,2.9357,2.9356,0,3.0656,3.0585,3.0513,3.0402,3.0338,3.0281,3.0186,3.0136,3.0062,2.9971,2.9895,2.9793,2.9703,2.9593,2.9494,2.9458,2.9424,2.9436,2.9436,2.9421,2.9379,2.9393,2.9466,2.9466,2.9466,2.9466,2.9466,2.9466,3.068,3.0615,3.0555,3.0451,3.0378,3.0295,3.0246,3.0174,3.0101,2.9992,2.9918,2.9847,2.9747,2.964,2.9554,2.9523,2.949,2.9512,2.9471,2.9434,2.9424,2.9415,2.9427,2.9506,2.9506,2.9518,2.9519,2.9519]}]]